Location: Triton
(47.6048°N, 122.9899°W)
Time: 15:33:03
(UTC+00:00)

ARIANE 6 FM1 Upper Stage - Pass Details

Date: 15 February 2026
Orbit: 523 x 607 km, 62.0° (Epoch: 8 March)

Event Time Altitude Azimuth Distance (km) Brightness Sun altitude
Rises 03:14:39 0° 319° (NW) 2,661 6.7 -17.5°
Reaches altitude 10° 03:16:54 10° 325° (NW) 1,768 5.7 -17.9°
Maximum altitude 03:20:46 50° 42° (NE) 675 2.7 -18.5°
Enters shadow 03:21:16 46° 69° (ENE) 709 2.7 -18.6°
